CAPE
0 0 0 0 0 0 0 0 0 0 0 0 0 0 0 0 0 0 0 1 1 1 1 2 2 1 2 1 1 1 3 1 1 0 10 0 0 0 0 0 0 0 0
0 0 0 0 0 0 0 0 0 0 0 0 0 0 0 0 0 0 0 1 1 1 0 1 3 1 2 1 1 0 1 0 2 4 0 0 0 0 0 0 0 0 1
0 0 0 0 0 0 0 0 0 0 0 0 0 0 0 0 0 0 0 0 1 1 2 2 2 1 1 1 0 1 1 1 4 1 1 0 0 0 0 0 0 0 0
0 0 0 0 0 0 0 0 0 0 0 0 0 0 0 0 0 0 0 0 1 0 2 1 1 0 1 0 1 0 0 1 2 0 1 0 1 0 0 0 1 0 0
0 0 0 0 0 0 0 0 0 0 0 0 0 0 0 0 0 0 0 0 2 2 0 0 1 1 1 1 1 1 0 0 0 0 0 0 1 0 0 0 0 0 0
0 0 0 0 0 0 0 0 0 0 0 0 0 0 0 0 0 1 1 0 0 0 3 3 2 1 2 1 1 1 1 0 1 0 0 0 0 0 0 0 0 0 0
0 0 0 0 0 0 0 0 0 0 0 0 0 0 0 0 0 1 0 0 0 0 0 1 0 1 1 0 1 1 1 1 3 3 2 2 0 0 0 0 0 0 0
0 0 0 0 0 0 0 0 0 0 0 0 0 0 0 0 0 0 0 0 0 0 0 0 0 0 0 2 0 1 0 0 0 0 0 1 1 1 1 1 0 0 1
0 0 0 0 0 0 0 0 0 0 0 0 0 0 0 0 0 0 0 0 0 0 0 0 0 0 1 3 0 0 0 0 0 2 3 5 5 0 1 0 0 0 0
0 0 0 0 0 0 0 0 0 0 0 0 0 0 0 0 0 0 0 0 0 0 0 0 1 1 1 0 1 0 0 0 0 0 0 0 0 2 0 0 0 0 0
0 0 0 0 0 0 0 0 0 0 0 0 0 0 0 0 0 0 0 0 0 0 0 0 1 2 2 1 1 2 4 0 0 0 0 0 0 0 0 1 0 0 0
0 0 0 0 0 0 0 0 0 0 0 0 0 0 0 0 0 0 0 0 0 0 0 0 0 3 4 3 3 4 3 0 0 0 0 0 0 0 0 0 0 0 0
0 0 0 0 0 0 0 0 0 0 0 0 0 0 0 0 0 0 0 0 0 0 0 0 0 0 0 0 2 0 0 0 0 0 0 0 0 0 0 0 0 0 0
0 0 0 0 0 0 0 0 0 0 0 0 0 0 0 0 0 0 0 0 0 0 0 0 0 0 0 0 0 0 0 0 0 0 0 0 0 0 0 0 0 0 0
0 0 0 0 0 0 0 0 0 0 0 0 0 0 0 0 0 0 0 0 0 0 0 0 0 0 0 0 0 0 0 0 0 0 0 0 0 0 0 0 0 0 0
0 0 0 0 0 0 0 0 0 0 0 0 0 0 0 0 0 0 0 0 0 0 0 0 0 0 0 0 0 0 0 0 0 0 0 0 0 0 0 0 0 0 0
0 0 0 0 0 0 0 0 0 0 0 0 0 0 0 0 0 0 0 0 0 0 0 0 0 0 0 0 0 0 0 0 0 0 0 0 0 0 0 0 0 0 0
0 0 0 0 0 0 0 0 0 0 0 0 0 0 0 0 0 0 0 0 0 0 0 0 0 0 0 0 0 0 0 0 0 0 0 0 0 0 0 0 0 0 0
0 0 0 0 0 0 0 0 0 0 0 0 0 0 0 0 0 0 0 0 0 0 0 0 0 0 0 0 0 0 0 0 0 0 0 0 0 0 0 0 0 0 0
0 0 0 0 0 0 0 0 0 0 0 0 0 0 0 0 0 0 0 0 0 0 0 0 0 0 0 0 0 0 0 0 0 0 0 0 0 0 0 0 0 0 0
0 0 0 0 0 0 0 0 0 0 0 0 0 0 0 0 0 0 0 0 0 0 0 0 0 0 0 0 0 0 0 0 0 0 0 0 0 0 0 0 0 0 0
0 0 0 0 0 0 0 0 0 0 0 0 0 0 0 0 0 0 0 0 0 0 0 0 0 0 0 0 0 0 0 0 0 0 0 0 0 0 0 0 0 0 0
0 0 0 0 0 0 0 0 0 0 0 0 0 0 0 0 0 0 0 0 0 0 0 0 0 0 0 0 0 0 0 0 0 0 0 0 0 0 0 0 0 0 0
0 0 0 0 0 0 0 0 0 0 0 0 0 0 0 0 0 0 0 0 0 0 0 0 0 0 0 0 0 0 0 0 0 0 0 0 0 0 0 0 0 0 0
0 0 0 0 0 0 0 0 0 0 0 0 0 0 0 0 0 0 0 0 0 0 0 0 0 0 0 0 0 0 0 0 0 0 0 0 0 0 0 0 0 0 0
0 0 0 0 0 0 0 0 0 0 0 0 0 0 0 0 0 0 0 0 0 0 0 0 0 0 0 0 0 0 0 0 0 0 0 0 0 0 0 0 0 0 0
CIN
-0 -0 -0 -0 -0 -0 -0 -0 -0 -0 -0 -0 -0 -0 -0 -0 -0 -0 -0 -0 -0 -0 -0 -0 -0 -0 -0 -0 -0 -0 -0 -0 -0 -0 -2 -0 -0 -0 -0 -0 -0 -0 -0
-0 -0 -0 -0 -0 -0 -0 -0 -0 -0 -0 -0 -0 -0 -0 -0 -0 -0 -0 -0 -0 -0 -0 -0 -0 -0 -0 -0 -0 -0 -0 -0 -0 -0 -2 -0 -0 -0 -0 -0 -0 -0 -0
-0 -0 -0 -0 -0 -0 -0 -0 -0 -0 -0 -0 -0 -0 -0 -0 -0 -0 -0 -0 -0 -0 -0 -0 -0 -0 -0 -0 -0 -0 -0 -0 -0 -0 -2 -2 -0 -0 -0 -0 -0 -0 -0
-0 -0 -0 -0 -0 -0 -0 -0 -0 -0 -0 -0 -0 -0 -0 -0 -0 -0 -0 -0 -0 -0 -0 -0 -0 -0 -0 -0 -0 -0 -0 -0 -1 -0 -0 -2 -0 -0 -0 -0 -0 -0 -0
-0 -0 -0 -0 -0 -0 -0 -0 -0 -0 -0 -0 -0 -0 -0 -0 -0 -0 -0 -0 -0 -0 -0 -0 -0 -0 -0 -0 -0 -0 -0 -1 -0 -0 -0 -0 -0 -0 -0 -0 -0 -0 -0
-0 -0 -0 -0 -0 -0 -0 -0 -0 -0 -0 -0 -0 -0 -0 -0 -0 -0 -0 -0 -0 -0 -0 -0 -0 -0 -0 -0 -0 -0 -0 -1 -1 -0 -0 -0 -0 -0 -0 -0 -0 -0 -0
-0 -0 -0 -0 -0 -0 -0 -0 -0 -0 -0 -0 -0 -0 -0 -0 -0 -0 -0 -0 -0 -0 -0 -0 -0 -0 -0 -0 -0 -0 -0 -0 -1 -0 -0 -0 -0 -0 -0 -0 -0 -0 -0
-0 -0 -0 -0 -0 -0 -0 -0 -0 -0 -0 -0 -0 -0 -0 -0 -0 -0 -0 -0 -0 -0 -0 -0 -0 -0 -0 -0 -0 -0 -0 -0 -0 -0 -0 -0 -0 -0 -0 -0 -0 -0 -0
-0 -0 -0 -0 -0 -0 -0 -0 -0 -0 -0 -0 -0 -0 -0 -0 -0 -0 -0 -0 -0 -0 -0 -0 -0 -0 -0 -0 -0 -0 -0 -0 -0 -0 -0 -0 -0 -0 -0 -0 -0 -0 -0
-0 -0 -0 -0 -0 -0 -0 -0 -0 -0 -0 -0 -0 -0 -0 -0 -0 -0 -0 -0 -0 -0 -0 -0 -0 -0 -0 -0 -0 -0 -0 -0 -0 -0 -0 -0 -0 -0 -0 -0 -0 -0 -0
-0 -0 -0 -0 -0 -0 -0 -0 -0 -0 -0 -0 -0 -0 -0 -0 -0 -0 -0 -0 -0 -0 -0 -0 -0 -0 -0 -0 -0 -0 -0 -0 -0 -0 -0 -0 -0 -0 -0 -0 -0 -0 -0
-0 -0 -0 -0 -0 -0 -0 -0 -0 -0 -0 -0 -0 -0 -0 -0 -0 -0 -0 -0 -0 -0 -0 -0 -0 -0 -0 -0 -0 -0 -0 -0 -0 -0 -0 -0 -0 -0 -0 -0 -0 -0 -0
-0 -0 -0 -0 -0 -0 -0 -0 -0 -0 -0 -0 -0 -0 -0 -0 -0 -0 -0 -0 -0 -0 -0 -0 -0 -0 -0 -0 -0 -0 -0 -0 -0 -0 -0 -0 -0 -0 -0 -0 -0 -0 -0
-0 -0 -0 -0 -0 -0 -0 -0 -0 -0 -0 -0 -0 -0 -0 -0 -0 -0 -0 -0 -0 -0 -0 -0 -0 -0 -0 -0 -0 -0 -0 -0 -0 -0 -0 -0 -0 -0 -0 -0 -0 -0 -0
-0 -0 -0 -0 -0 -0 -0 -0 -0 -0 -0 -0 -0 -0 -0 -0 -0 -0 -0 -0 -0 -0 -0 -0 -0 -0 -0 -0 -0 -0 -0 -0 -0 -0 -0 -0 -0 -0 -0 -0 -0 -0 -0
-0 -0 -0 -0 -0 -0 -0 -0 -0 -0 -0 -0 -0 -0 -0 -0 -0 -0 -0 -0 -0 -0 -0 -0 -0 -0 -0 -0 -0 -0 -0 -0 -0 -0 -0 -0 -0 -0 -0 -0 -0 -0 -0
-0 -0 -0 -0 -0 -0 -0 -0 -0 -0 -0 -0 -0 -0 -0 -0 -0 -0 -0 -0 -0 -0 -0 -0 -0 -0 -0 -0 -0 -0 -0 -0 -0 -0 -0 -0 -0 -0 -0 -0 -0 -0 -0
-0 -0 -0 -0 -0 -0 -0 -0 -0 -0 -0 -0 -0 -0 -0 -0 -0 -0 -0 -0 -0 -0 -0 -0 -0 -0 -0 -0 -0 -0 -0 -0 -0 -0 -0 -0 -0 -0 -0 -0 -0 -0 -0
-0 -0 -0 -0 -0 -0 -0 -0 -0 -0 -0 -0 -0 -0 -0 -0 -0 -0 -0 -0 -0 -0 -0 -0 -0 -0 -0 -0 -0 -0 -0 -0 -0 -0 -0 -0 -0 -0 -0 -0 -0 -0 -0
-0 -0 -0 -0 -0 -0 -0 -0 -0 -0 -0 -0 -0 -0 -0 -0 -0 -0 -0 -0 -0 -0 -0 -0 -0 -0 -0 -0 -0 -0 -0 -0 -0 -0 -0 -0 -0 -0 -0 -0 -0 -0 -0
-0 -0 -0 -0 -0 -0 -0 -0 -0 -0 -0 -0 -0 -0 -0 -0 -0 -0 -0 -0 -0 -0 -0 -0 -0 -0 -0 -0 -0 -0 -0 -0 -0 -0 -0 -0 -0 -0 -0 -0 -0 -0 -0
-0 -0 -0 -0 -0 -0 -0 -0 -0 -0 -0 -0 -0 -0 -0 -0 -0 -0 -0 -0 -0 -0 -0 -0 -0 -0 -0 -0 -0 -0 -0 -0 -0 -0 -0 -0 -0 -0 -0 -0 -0 -0 -0
-0 -0 -0 -0 -0 -0 -0 -0 -0 -0 -0 -0 -0 -0 -0 -0 -0 -0 -0 -0 -0 -0 -0 -0 -0 -0 -0 -0 -0 -0 -0 -0 -0 -0 -0 -0 -0 -0 -0 -0 -0 -0 -0
-0 -0 -0 -0 -0 -0 -0 -0 -0 -0 -0 -0 -0 -0 -0 -0 -0 -0 -0 -0 -0 -0 -0 -0 -0 -0 -0 -0 -0 -0 -0 -0 -0 -0 -0 -0 -0 -0 -0 -0 -0 -0 -0
-0 -0 -0 -0 -0 -0 -0 -0 -0 -0 -0 -0 -0 -0 -0 -0 -0 -0 -0 -0 -0 -0 -0 -0 -0 -0 -0 -0 -0 -0 -0 -0 -0 -0 -0 -0 -0 -0 -0 -0 -0 -0 -0
-0 -0 -0 -0 -0 -0 -0 -0 -0 -0 -0 -0 -0 -0 -0 -0 -0 -0 -0 -0 -0 -0 -0 -0 -0 -0 -0 -0 -0 -0 -0 -0 -0 -0 -0 -0 -0 -0 -0 -0 -0 -0 -0
Wind_Speed
9 10 11 12 13 15 18 20 22 23 25 26 27 27 25 22 22 22 19 13 16 19 21 21 21 23 25 24 23 22 23 24 31 40 37 42 45 46 44 43 42 42 40
8 9 9 11 12 14 16 19 20 21 20 23 26 27 27 26 23 23 21 18 19 19 18 15 14 19 21 21 20 19 17 17 19 21 41 42 43 42 44 43 42 38 36
9 8 9 10 10 12 14 16 17 17 17 20 22 23 25 23 20 21 18 16 14 13 11 12 11 12 16 19 17 17 15 15 16 20 27 35 40 40 39 36 35 34 32
8 8 9 8 9 10 12 14 14 14 14 17 16 16 14 13 14 13 14 14 15 17 15 13 12 12 12 13 16 15 14 15 14 16 20 31 36 35 31 34 33 29 29
9 9 9 8 10 10 11 11 10 11 11 12 15 16 15 16 16 16 21 22 22 22 21 20 18 15 12 11 12 14 14 13 13 13 12 12 31 30 29 25 26 24 24
10 9 10 9 10 10 10 9 9 10 10 11 12 17 18 18 17 21 22 24 25 25 24 23 22 20 17 15 13 9 8 12 13 12 8 5 4 29 27 26 25 23 22
10 11 11 10 11 10 10 10 9 10 11 12 13 17 18 18 19 25 26 25 25 26 26 25 25 25 23 20 17 14 10 8 9 10 8 4 2 6 25 25 24 21 19
12 13 12 11 12 12 12 11 10 10 11 12 14 17 19 20 21 24 25 25 27 27 28 27 28 28 28 26 23 19 16 13 13 13 11 6 2 9 13 22 23 18 15
14 14 13 12 12 14 13 14 13 12 13 15 15 17 19 20 21 23 25 25 25 27 28 28 30 30 32 32 28 27 25 20 14 12 13 12 9 6 12 10 16 14 15
15 14 13 13 13 13 14 16 17 16 15 16 17 17 19 19 20 22 23 24 26 27 28 29 29 32 33 32 31 28 25 23 21 16 14 15 13 10 11 10 10 8 13
15 14 15 14 13 14 15 17 18 19 19 18 17 16 17 18 20 21 22 23 24 27 28 29 29 32 32 31 30 28 27 23 23 23 22 19 17 19 17 13 11 11 8
16 16 16 16 15 16 17 17 19 19 20 20 19 19 18 19 19 20 21 22 23 25 27 27 28 30 30 31 30 29 27 25 25 27 27 26 23 20 20 23 20 17 16
17 19 18 17 16 16 17 18 19 20 21 21 21 21 20 19 20 20 22 23 24 24 25 26 28 28 29 29 30 30 28 27 26 27 27 26 25 23 22 21 23 20 18
23 23 22 19 18 18 19 19 20 20 20 21 22 22 22 22 22 22 23 23 24 25 25 25 26 27 27 27 27 29 28 27 25 24 24 23 23 23 24 23 23 23 22
24 26 26 22 20 19 19 19 20 20 19 20 20 21 22 24 23 22 23 25 25 24 24 25 26 27 28 28 27 27 26 26 25 23 23 22 22 22 22 19 19 19 18
27 29 27 24 22 21 22 23 22 22 21 21 22 22 21 21 21 22 23 24 25 24 26 26 26 26 26 26 26 25 25 24 24 22 22 21 22 22 21 21 19 18 17
31 31 29 27 25 23 22 23 24 23 22 22 21 20 20 21 21 20 20 22 23 24 25 25 25 24 25 25 24 24 23 22 22 22 21 21 21 20 18 18 17 16 15
31 31 30 29 26 24 23 23 22 22 22 21 19 18 16 17 17 19 20 21 24 25 25 25 25 24 24 23 22 22 22 22 21 22 22 21 20 19 18 17 16 14 14
32 32 31 28 26 25 24 22 22 22 22 22 23 21 19 18 18 19 19 22 24 25 24 24 23 23 23 23 22 21 21 21 21 21 21 21 21 20 19 18 17 16 15
32 32 31 28 26 24 23 24 24 24 24 24 24 24 22 21 21 21 21 22 23 24 23 23 23 23 23 22 22 22 22 23 23 24 24 23 22 22 22 20 20 21 20
30 28 27 26 26 26 26 26 26 25 25 25 25 24 22 22 22 22 22 22 22 22 22 21 21 22 21 22 23 23 24 24 24 24 24 23 21 23 23 22 22 23 22
26 25 25 25 25 26 26 26 27 26 26 25 25 24 22 22 22 22 23 22 21 21 20 20 21 22 22 23 22 23 23 23 23 22 22 23 23 22 22 22 21 22 23
25 25 25 26 26 26 26 26 26 26 27 26 26 24 23 22 22 22 23 22 21 21 20 21 21 21 22 22 22 23 24 24 24 23 23 23 22 22 22 23 22 22 22
25 25 25 26 26 26 26 26 26 26 26 25 24 23 23 23 22 22 22 22 21 21 21 21 21 21 22 23 24 24 24 24 24 24 24 24 24 24 23 23 23 24 23
25 25 25 26 26 26 25 25 25 25 25 24 23 22 21 20 20 21 21 21 21 21 22 22 22 22 23 24 24 25 24 24 24 24 24 24 25 24 24 24 25 25 25
25 25 25 25 25 25 25 24 25 24 24 23 22 21 21 21 21 21 21 21 21 21 22 23 23 24 24 25 25 26 26 25 25 23 23 24 25 25 25 25 25 25 25
Wind_Direction
293 308 318 326 334 344 348 356 0 5 7 10 10 9 10 13 9 5 3 3 357 350 346 343 341 342 341 342 339 335 331 325 316 310 310 301 297 293 292 287 285 284 282
291 305 314 323 336 342 354 1 9 15 26 26 23 20 20 23 29 25 27 25 15 8 2 357 350 352 351 351 349 345 337 331 323 316 309 303 299 298 292 287 282 282 280
288 298 308 318 333 342 356 7 18 34 48 44 43 46 42 46 51 46 44 40 36 31 27 25 14 9 2 3 359 354 350 343 337 333 328 316 303 300 295 291 285 279 281
281 289 297 310 325 340 354 8 28 49 58 54 62 61 64 66 64 58 54 50 45 43 41 37 32 25 14 7 7 3 1 359 352 346 343 328 310 302 301 293 285 280 277
273 279 286 301 313 330 347 6 32 55 70 62 57 57 61 58 57 50 44 43 43 42 41 38 34 28 17 10 8 12 13 11 8 4 1 357 316 309 304 305 298 289 284
267 269 282 290 301 314 333 352 12 33 45 45 52 38 43 45 46 40 41 39 38 38 38 36 33 29 26 20 14 9 11 18 18 19 11 14 232 307 308 299 299 297 287
261 269 274 281 290 300 315 331 346 355 15 17 25 21 28 32 35 26 26 31 32 32 33 33 32 30 29 26 25 27 31 31 25 21 19 19 233 204 274 289 299 309 300
260 265 270 275 283 291 301 312 325 337 347 359 3 6 9 14 18 17 21 24 24 26 28 29 29 29 30 30 30 36 42 43 47 44 42 43 188 200 202 245 297 322 321
258 260 263 269 276 284 290 297 308 320 329 333 345 352 354 1 9 11 12 17 21 22 22 23 25 27 27 28 34 37 40 43 53 56 55 56 73 131 173 142 334 338 333
256 253 259 265 270 276 284 290 297 306 313 320 326 336 345 352 359 3 7 9 12 14 17 19 22 21 23 27 30 35 38 42 47 55 62 60 71 97 103 129 120 36 333
261 262 266 266 268 275 283 288 292 297 303 309 317 326 335 342 347 353 359 3 4 5 7 10 15 15 18 22 27 32 36 45 48 51 55 64 69 58 65 80 123 118 59
265 267 269 270 273 278 281 286 289 292 296 301 308 315 323 330 338 344 348 353 356 358 360 4 8 9 13 15 20 25 31 36 43 45 48 50 61 74 70 35 27 29 10
271 272 273 274 275 278 279 283 288 290 292 296 300 307 313 321 328 333 338 342 346 350 354 357 0 4 7 11 12 16 21 26 30 33 40 48 53 61 72 83 59 30 18
275 276 277 277 278 279 281 283 285 287 290 294 297 301 307 312 318 324 330 334 338 342 346 350 354 358 1 5 7 8 13 18 21 26 31 37 47 48 48 51 46 46 44
279 279 279 280 279 280 278 280 282 286 287 292 295 300 303 305 310 316 321 326 330 334 337 341 344 346 349 352 358 3 4 6 8 13 19 24 28 32 36 42 45 35 39
283 282 283 283 282 281 281 283 284 286 288 290 297 299 302 307 311 313 318 322 326 329 330 332 335 339 343 347 349 353 356 357 360 2 3 5 7 11 19 26 34 37 39
283 283 283 284 285 284 283 282 284 287 286 289 289 294 298 305 307 311 316 321 323 325 326 328 331 335 337 340 343 346 349 352 352 351 350 353 352 358 3 14 24 27 30
285 284 285 286 289 290 289 287 286 284 282 283 282 284 288 297 305 310 314 319 318 321 323 324 326 328 332 335 337 340 342 343 344 343 338 342 343 343 343 348 355 360 358
287 285 287 290 292 294 294 292 291 289 286 286 290 288 288 292 298 304 308 312 315 317 320 322 324 327 328 330 332 333 334 334 336 335 334 332 329 329 328 327 328 332 337
290 288 290 294 297 298 297 296 295 293 291 287 285 286 290 291 293 296 302 306 310 314 318 320 323 326 327 329 329 329 328 327 326 324 322 324 324 322 317 317 316 314 317
299 299 300 300 300 301 301 300 299 298 295 292 289 288 286 287 290 293 296 300 305 309 314 317 321 323 327 328 327 325 324 324 324 322 320 320 321 317 314 315 312 309 311
312 311 310 309 309 308 306 306 304 302 300 298 295 293 289 287 289 292 296 299 302 306 310 313 316 318 320 321 323 324 324 324 325 324 322 319 317 314 314 314 314 310 307
320 319 317 315 315 314 313 312 310 308 306 305 302 298 295 292 293 294 298 302 303 304 306 308 311 315 319 321 322 322 320 320 320 320 318 317 316 314 313 312 311 307 305
328 327 326 324 323 321 320 319 318 317 315 313 311 307 304 302 301 302 304 307 308 310 312 313 313 314 316 317 318 320 320 319 318 317 316 314 312 311 310 309 307 305 305
334 333 333 331 330 329 329 329 328 327 326 324 321 320 318 316 315 313 313 313 313 313 315 316 317 317 317 318 318 319 319 318 317 316 315 313 312 310 308 306 305 303 302
343 342 341 340 339 339 338 337 336 335 335 335 334 333 329 326 323 321 320 319 318 318 318 318 318 318 318 318 318 318 317 316 316 314 315 314 311 309 307 305 303 302 301